User: anonymous   Login
Location: ???????
(52.3000°N, 54.4667°E)
Time: 20:18:29
(UTC+00:00)
Language:

STARLINK-1144 - Orbit

View from above orbital plane
View from above orbital plane
View from above satellite
View from above satellite

Ground track
Ground track

The orbit data is extracted from the following two-line orbital elements,

1 44933C 20001V   20091.53575951  .00012267  00000-0  83974-3 0   913
2 44933  53.0001   4.3264 0002054  65.8954 171.8691 15.05586724    18
Epoch (UTC): 31 March 2020 12:51:29
Eccentricity: 0.0002054
inclination: 53.0001°
perigee height: 548 km
apogee height: 551 km
right ascension of ascending node: 4.3264°
argument of perigee: 65.8954°
revolutions per day: 15.05586724
mean anomaly at epoch: 171.8691°
orbit number at epoch: 1

The dashed part of the orbit path shows where the satellite is in the earth's shadow,  

DLR